Location: Meadowlark Meadows
(41.2788°N, 111.9561°W)
Time: 07:57:24
(UTC+00:00)

ISS - Visible Passes

Search period start: 06 July 2022 00:00
Search period end: 16 July 2022 00:00
Orbit: 414 x 420 km, 51.6° (Epoch: 06 July)

Date Brightness Start Highest point End Pass type
(mag) Time Alt. Az. Time Alt. Az. Time Alt. Az.
06 Jul -2.0 08:18:59 32° N 08:18:59 32° N 08:21:21 10° NE visible
06 Jul -0.8 09:53:34 10° NW 09:55:39 15° N 09:57:44 10° NNE visible
07 Jul -1.3 07:32:06 19° NE 07:32:06 19° NE 07:33:12 10° NE visible
07 Jul -1.0 09:04:58 11° NW 09:07:10 17° NNW 09:09:31 10° NNE visible
07 Jul -0.7 10:42:54 10° NNW 10:44:56 15° N 10:46:57 10° NE visible
08 Jul -1.4 08:17:59 20° NW 08:18:42 21° NNW 08:21:22 10° NNE visible
08 Jul -0.7 09:54:31 10° NNW 09:56:24 14° N 09:58:18 10° NE visible
09 Jul -1.5 07:30:51 26° N 07:30:51 26° N 07:33:14 10° NE visible
09 Jul -0.6 09:05:57 10° NW 09:07:52 14° N 09:09:47 10° NNE visible
09 Jul -0.9 10:43:03 10° NNW 10:45:36 20° NNE 10:48:09 10° ENE visible
10 Jul -1.6 06:43:26 24° NNE 06:43:26 24° NNE 06:45:05 10° NE visible
10 Jul -0.6 08:17:14 10° NW 08:19:20 15° N 08:21:26 10° NNE visible
10 Jul -0.6 09:54:51 10° NNW 09:57:06 16° NNE 09:59:21 10° NE visible
10 Jul -2.7 11:31:10 10° NW 11:34:27 49° NNE 11:37:44 10° ESE visible
11 Jul -2.0 05:55:14 26° NE 05:55:14 26° NE 05:56:53 10° NE visible
11 Jul -0.8 07:28:26 10° WNW 07:30:49 18° NNW 07:33:11 10° NNE visible
11 Jul -0.5 09:06:34 10° NNW 09:08:34 15° N 09:10:33 10° NE visible
11 Jul -1.8 10:42:59 10° NW 10:46:05 33° NNE 10:49:10 10° E visible
12 Jul -4.0 05:01:55 10° SW 05:05:15 77° SE 05:08:35 10° ENE visible
12 Jul -1.2 06:39:37 10° WNW 06:42:18 22° NNW 06:45:00 10° NE visible
12 Jul -0.4 08:18:07 10° NNW 08:19:59 14° N 08:21:52 10° NE visible
12 Jul -1.2 09:54:49 10° NW 09:57:38 24° NNE 10:00:27 10° ENE visible
12 Jul -3.7 11:31:17 10° WNW 11:34:37 61° SW 11:37:55 10° SE visible
13 Jul -3.5 04:13:50 10° SSW 04:17:00 42° SE 04:20:11 10° ENE visible
13 Jul -1.7 05:50:53 10° W 05:53:50 29° NNW 05:56:49 10° NE visible
13 Jul -0.4 07:29:29 10° NW 07:31:25 14° N 07:33:20 10° NNE visible
13 Jul -0.9 09:06:38 10° NNW 09:09:09 19° NNE 09:11:39 10° ENE visible
13 Jul -3.6 10:42:58 10° NW 10:46:19 77° NE 10:49:41 10° ESE visible
14 Jul -2.4 05:02:13 10° WSW 05:05:25 41° NNW 05:08:37 10° NE visible
14 Jul -0.6 06:40:43 10° NW 06:42:50 16° N 06:44:57 10° NNE visible
14 Jul -0.6 08:18:23 10° NNW 08:20:35 16° N 08:22:48 10° NE visible
14 Jul -2.7 09:54:41 10° NW 09:57:57 47° NNE 10:01:13 10° ESE visible
14 Jul -2.5 11:31:53 10° W 11:34:30 21° SW 11:37:07 10° S visible
15 Jul -3.4 04:13:42 10° WSW 04:17:01 67° NNW 04:20:21 10° NE visible
15 Jul -0.8 05:51:51 10° WNW 05:54:16 18° NNW 05:56:40 10° NNE visible
15 Jul -0.5 07:30:02 10° NNW 07:32:00 15° N 07:33:58 10° NE visible
15 Jul -1.9 09:06:28 10° NW 09:09:32 31° NNE 09:12:35 10° E visible
15 Jul -3.3 10:43:11 10° WNW 10:46:18 36° SW 10:49:25 10° SSE visible
